GPS BIIR-2 (PRN 13)

Last updated on Tue Jul 01 2025 00:03:13 GMT+0000 (Coordinated Universal Time)

1 24876U 97035A 25181.20346290 .00000002 00000+0 00000+0 0 9994 2 24876 55.8146 112.3456 0091998 54.4946 306.3485 2.00562506204896
UTC large
Height (km)
Speed (km/s)
/
Latitude / Longitude
Inclination (degrees)
Orbital Period (minutes)
Azimuth
Elevation
Range (km)
Doppler Factor

Next 0 passes for location: London (51.5072 / 0.1276)

Sorry there are no passes over London.